SCP
0 1 1 1 0 0 0 0 1 1 2 3 4 5 6 7 6 5 5 5 5 7 8 9 7 6 5 5 4 4 4 4 4 4 3 3 3 3 3 3 3 2 3 3
0 1 1 1 0 0 0 1 1 2 3 4 5 5 6 5 5 5 4 5 6 7 9 9 7 6 6 5 5 4 4 4 4 4 3 3 3 3 3 3 3 2 3 3
0 0 1 1 1 1 1 1 2 3 4 6 6 6 5 5 5 4 4 4 5 7 8 8 7 7 6 5 5 4 4 4 4 4 4 3 3 3 3 3 3 3 3 3
0 0 1 1 1 1 2 3 3 5 6 8 7 6 5 5 5 5 5 5 6 6 6 6 6 7 6 6 5 5 5 4 4 4 4 3 3 3 3 3 3 3 3 3
1 1 1 1 1 2 3 4 5 6 7 7 6 6 5 5 5 6 6 6 7 5 5 5 6 6 5 5 5 5 5 4 4 4 3 3 3 3 3 3 3 2 2 2
1 1 1 1 2 2 3 4 6 6 5 5 4 4 5 6 7 7 8 8 7 6 5 5 5 5 4 4 4 4 4 3 3 3 2 3 4 3 3 2 2 2 1 1
1 1 1 2 3 3 4 5 6 5 4 4 4 4 5 9 11 10 9 8 7 7 6 5 4 4 4 4 4 4 3 3 3 2 2 3 3 3 2 2 1 1 1 1
1 2 3 4 4 4 5 5 5 5 4 4 4 4 6 10 12 11 8 6 6 6 6 5 4 3 4 4 3 3 3 3 3 3 2 2 3 2 2 1 1 1 1 1
2 4 6 6 5 5 5 5 4 4 3 3 3 4 6 9 10 9 6 5 4 5 5 4 3 3 3 3 2 2 2 3 3 3 3 2 2 1 1 1 1 1 1 1
4 5 6 6 5 5 4 4 3 3 3 3 3 5 7 8 8 7 5 4 4 4 4 3 3 3 2 2 1 2 2 3 3 3 2 2 1 1 1 1 1 1 1 1
5 5 5 5 4 4 4 4 3 3 4 4 4 5 7 8 8 7 5 5 4 4 3 3 3 2 2 2 2 2 2 2 3 3 2 1 1 1 1 1 1 1 1 1
6 5 5 4 3 4 5 4 4 4 6 7 7 7 7 7 7 7 6 6 5 4 3 2 2 2 2 2 2 2 2 2 2 1 1 1 1 1 1 0 0 0 0 0
7 7 5 3 3 3 4 4 4 4 6 8 9 9 9 8 7 7 7 6 5 3 2 2 2 2 2 2 2 2 2 1 1 1 1 1 1 1 1 1 0 0 0 0
6 6 5 3 2 2 2 3 3 3 4 5 7 8 8 7 7 6 6 4 3 2 1 1 1 1 2 2 2 2 1 1 1 1 1 1 1 1 1 1 1 0 0 0
4 4 3 3 2 2 2 2 3 3 3 3 4 4 4 4 4 4 3 2 2 1 1 1 1 1 1 1 1 1 1 1 2 2 2 2 2 2 2 2 1 0 0 0
3 3 2 2 2 2 2 2 3 3 3 3 3 3 3 2 2 2 2 1 1 1 1 1 1 1 1 1 1 1 1 1 1 2 2 1 1 1 1 1 1 0 0 0
3 2 2 2 2 1 1 2 2 2 3 3 3 3 3 3 2 1 1 1 1 1 0 0 0 0 0 0 1 1 1 1 1 1 1 1 1 1 0 0 0 0 0 0
2 2 1 1 1 1 1 1 1 1 2 2 2 2 2 2 1 1 1 1 0 0 0 0 0 0 0 0 0 0 0 0 0 0 0 0 0 0 0 0 0 0 0 0
1 1 1 1 1 1 1 1 1 1 1 1 1 1 1 1 1 1 1 0 0 0 0 0 0 0 0 0 0 0 0 0 0 0 0 0 0 0 0 0 0 0 0 0
1 1 1 1 1 1 1 1 0 0 0 0 0 0 0 0 0 1 1 0 0 0 0 0 0 0 0 0 0 0 0 0 0 0 0 0 0 0 0 0 0 0 0 0
2 2 1 1 1 1 1 1 0 0 0 0 0 0 0 0 0 1 0 0 0 0 0 0 0 0 0 0 0 0 0 0 0 0 0 0 0 0 0 0 0 0 0 0
1 1 1 1 1 0 0 1 0 0 0 0 0 0 0 0 0 0 0 0 0 0 0 0 0 0 0 0 0 0 0 0 0 0 0 0 0 0 0 0 0 0 0 0
1 1 1 1 1 0 1 1 0 0 0 0 0 0 0 0 0 0 0 0 0 0 0 0 0 0 0 0 0 0 0 0 0 0 0 0 0 0 0 0 0 0 0 0
1 1 1 1 1 0 1 1 1 1 0 0 0 0 0 0 0 0 0 0 0 0 0 0 0 0 0 0 0 0 0 0 0 0 0 0 0 0 0 0 0 0 0 0
1 1 1 1 1 1 1 1 1 1 1 0 0 0 0 0 0 0 0 0 0 0 0 0 0 0 0 0 0 0 0 0 0 0 0 0 0 0 0 0 0 0 0 0
1 1 1 1 1 1 1 1 1 1 1 0 0 0 0 0 0 0 0 0 0 0 0 0 0 0 0 0 0 0 0 0 0 0 0 0 0 0 0 0 0 0 0 0
1 1 1 1 1 1 1 1 1 1 0 0 0 0 0 0 0 0 0 0 0 0 0 0 0 0 0 0 0 0 0 0 0 0 0 0 0 0 0 0 0 0 0 0
Wind_Speed
13 11 11 14 17 18 17 14 11 7 9 9 9 8 8 10 11 11 11 10 9 7 6 5 5 4 3 3 3 4 5 4 4 4 4 3 3 4 3 3 4 4 4 4
13 13 11 13 15 17 16 14 12 7 3 6 11 9 8 9 11 11 10 9 9 7 6 5 4 3 3 4 4 4 4 4 4 3 3 4 4 4 3 3 3 3 3 3
11 11 10 11 13 13 12 12 10 7 5 5 9 10 9 9 10 11 10 9 8 7 5 4 4 4 3 4 4 4 4 4 4 4 4 4 4 4 3 3 2 3 2 3
8 9 13 9 9 10 9 8 6 7 11 9 9 10 8 9 10 10 10 9 7 6 6 5 4 4 4 4 4 5 4 4 4 4 4 4 4 4 3 3 3 3 3 3
7 9 10 8 7 7 6 3 3 9 12 12 12 11 9 9 10 10 10 9 7 6 6 5 4 4 5 5 5 5 5 4 4 3 3 4 4 4 3 4 4 4 4 4
6 7 7 3 2 1 4 4 4 7 9 11 11 7 8 10 11 11 10 9 8 7 7 6 5 5 6 6 6 5 5 4 4 4 4 4 5 5 5 5 6 6 6 6
8 7 4 4 3 2 6 5 6 6 7 7 5 7 11 12 12 11 10 10 8 7 7 5 5 6 6 6 6 5 5 5 6 6 5 5 5 6 7 7 7 7 8 8
8 7 3 4 1 3 5 7 7 8 9 11 13 14 13 12 11 11 10 10 9 7 7 6 6 6 7 6 6 6 7 8 8 7 6 6 7 7 7 7 8 7 7 7
1 2 3 6 8 6 6 7 7 8 11 12 14 13 11 11 11 10 10 9 8 8 7 7 7 7 7 6 6 8 9 9 9 9 9 8 8 8 6 6 6 6 6 6
5 6 5 5 7 6 7 8 8 9 10 12 14 13 12 11 10 9 9 9 8 9 9 8 8 8 7 7 7 9 10 9 9 9 10 10 8 8 7 6 5 6 6 6
5 6 5 6 6 7 8 9 10 10 11 12 14 13 12 10 10 9 9 9 8 9 9 9 9 9 8 7 8 10 10 10 10 10 10 11 11 9 9 8 6 6 6 5
3 4 4 6 5 7 9 9 9 11 12 12 12 12 12 11 10 9 9 9 9 10 10 10 9 9 8 7 8 9 9 8 8 8 8 9 10 11 16 13 16 16 13 10
5 6 8 8 6 7 9 9 10 11 13 13 12 12 12 11 10 10 10 10 10 10 10 10 10 9 8 7 8 8 9 8 7 7 8 8 8 9 9 10 15 16 14 13
8 7 8 8 7 8 10 10 10 12 13 13 12 12 12 12 11 11 11 11 10 10 10 10 10 10 8 8 8 8 9 8 7 6 7 7 7 7 7 8 8 8 9 9
6 7 8 9 9 9 9 9 10 11 13 12 12 11 12 13 12 12 11 11 10 11 10 10 10 9 7 8 9 8 7 6 5 6 6 6 7 7 8 8 8 7 6 5
7 9 10 10 10 10 9 10 10 11 12 12 11 11 12 13 13 12 11 10 11 11 10 9 9 7 7 7 7 7 6 8 6 6 7 7 7 7 7 7 7 6 6 4
7 8 9 9 10 10 10 9 10 10 11 12 12 12 13 13 13 13 12 11 11 10 9 8 8 7 6 5 6 6 6 7 7 7 7 7 7 7 7 7 6 6 6 5
6 7 8 9 9 9 10 10 11 11 11 12 12 12 11 11 12 12 11 11 11 11 9 8 7 7 6 6 5 5 6 6 7 7 7 6 6 6 6 6 6 7 6 6
6 8 9 9 10 10 10 10 11 11 11 12 12 11 11 11 11 11 10 11 11 10 9 8 8 7 7 6 4 4 6 7 8 7 7 6 6 6 6 6 7 7 6 6
8 10 10 10 10 11 11 11 12 11 11 12 12 12 12 11 10 10 10 10 8 7 7 6 6 6 5 5 4 5 7 7 7 7 6 5 6 6 6 7 7 7 6 6
10 11 11 12 12 12 12 12 12 12 11 11 11 12 11 10 10 9 9 10 8 7 7 6 4 4 5 4 4 6 6 6 6 6 6 6 6 7 7 7 6 6 6 5
10 11 12 13 13 12 11 11 12 12 12 11 11 11 11 10 10 10 9 7 7 5 4 6 6 7 6 4 5 6 6 6 6 6 6 6 6 6 6 6 6 5 5 5
9 11 12 12 13 13 12 12 12 12 12 11 10 10 9 8 8 8 8 6 7 6 6 6 6 7 7 4 5 6 6 6 6 6 6 6 6 6 6 6 5 5 4 4
9 10 10 11 11 13 12 12 11 10 11 10 10 9 9 8 8 8 8 9 9 8 7 6 6 6 3 3 5 5 6 6 6 6 6 5 5 6 5 5 4 4 4 4
10 11 12 12 11 10 11 11 11 11 11 9 10 9 7 7 8 8 9 9 9 8 7 6 3 3 2 4 6 6 6 6 5 5 5 5 6 5 5 4 4 4 4 4
9 9 8 8 8 8 8 9 8 8 9 9 8 8 8 8 10 8 7 9 10 7 6 5 4 3 4 5 6 7 6 6 5 5 6 5 5 5 4 5 5 4 4 4
10 9 7 8 7 7 7 7 8 8 8 8 9 8 8 8 7 7 8 7 7 6 5 5 5 5 5 6 6 5 5 5 5 5 5 4 4 4 4 4 3 3 3 3
Wind_Direction
256 250 217 216 219 220 223 227 234 208 179 169 155 145 141 135 134 131 129 127 122 120 115 116 115 116 125 131 129 140 149 157 159 162 163 169 166 163 167 177 180 179 186 190
249 255 236 223 220 219 221 223 232 216 180 138 131 131 140 142 139 133 130 128 125 123 120 117 121 129 120 113 108 113 129 138 139 142 146 145 145 147 146 149 158 162 170 172
241 237 238 228 221 223 222 222 227 207 164 139 135 141 144 144 136 131 126 122 119 115 111 106 107 105 110 115 115 111 111 108 115 130 135 135 146 139 139 140 137 139 137 127
247 236 231 233 221 225 218 221 219 154 138 149 134 121 117 119 119 119 118 113 110 110 102 93 94 103 103 105 108 108 106 101 103 117 122 124 124 127 128 123 119 116 111 104
241 240 234 227 223 218 189 181 112 127 131 130 127 122 110 106 109 106 106 103 96 94 93 84 80 89 98 94 92 92 90 84 81 90 102 109 115 115 117 115 106 95 89 91
232 232 232 236 245 253 168 160 97 113 131 140 156 155 126 114 109 108 104 101 98 94 91 82 74 79 89 90 85 82 83 81 76 78 84 86 95 100 100 101 96 89 78 72
235 237 238 296 289 227 200 142 110 125 135 147 136 97 119 118 111 109 105 102 98 92 88 80 76 82 87 84 82 82 87 83 77 79 82 81 87 93 99 99 96 88 80 72
225 230 225 342 13 53 74 93 111 119 116 109 106 106 111 112 111 111 108 104 100 93 87 81 81 85 86 81 78 83 83 79 73 70 72 79 85 87 92 97 96 91 86 76
68 99 76 51 73 74 81 93 102 103 109 115 115 114 117 113 107 102 99 98 98 97 90 82 82 86 88 82 81 86 84 79 76 73 67 65 71 77 80 82 90 92 88 84
115 114 99 78 80 74 80 91 99 104 113 118 119 123 117 110 105 100 96 93 93 94 90 82 78 80 84 90 93 92 91 86 82 78 71 61 57 57 59 55 75 87 88 87
135 131 107 88 85 88 86 93 102 103 110 117 118 120 117 112 108 103 99 93 90 89 88 85 81 80 82 90 99 98 96 94 89 84 83 74 65 53 61 51 48 70 77 76
124 131 122 109 92 101 97 94 104 109 109 111 114 117 116 110 105 103 100 98 96 91 89 86 83 80 82 90 99 102 102 101 100 99 96 94 92 78 58 63 60 61 66 80
101 100 104 102 94 93 98 101 106 113 113 112 110 110 111 108 104 102 100 97 96 97 94 90 86 81 79 87 95 95 99 101 105 107 108 108 106 102 95 73 64 61 63 69
103 109 117 117 108 100 102 101 104 108 108 109 111 114 112 108 105 101 98 97 99 99 98 95 91 87 84 86 91 95 98 99 105 108 110 112 113 112 109 106 95 80 65 64
120 122 121 114 110 107 110 111 109 109 109 109 111 114 114 111 106 102 100 101 100 97 94 94 92 91 91 93 92 91 92 94 99 105 105 106 107 103 99 99 101 103 100 84
118 123 126 124 120 116 119 121 119 114 111 112 112 111 110 108 105 101 99 98 96 92 91 91 90 87 89 96 99 94 88 87 90 98 100 98 96 97 99 98 95 92 89 86
142 139 134 130 126 123 124 123 120 118 116 113 113 113 111 110 106 101 96 93 92 90 89 90 90 88 87 87 93 99 99 95 90 87 85 86 87 88 89 89 88 87 81 57
145 139 134 131 128 123 120 118 119 117 115 116 115 111 109 109 106 105 104 102 96 88 81 79 80 83 79 72 73 92 95 92 88 85 85 85 89 93 94 94 96 96 94 80
128 124 122 124 127 123 120 119 119 116 116 115 113 109 106 104 105 106 105 102 98 92 84 83 82 84 81 70 74 96 96 97 95 93 94 96 95 93 93 93 90 86 82 78
119 118 119 120 120 119 118 116 115 114 114 114 113 112 110 109 108 107 103 95 89 94 98 90 89 86 83 65 61 92 92 94 97 99 101 99 94 92 91 89 87 85 84 83
119 119 119 119 117 115 115 115 115 114 114 114 116 116 114 112 111 109 106 100 91 91 99 97 87 81 71 50 67 87 91 94 96 95 93 91 89 87 84 83 83 82 80 79
117 117 119 119 119 116 115 114 115 115 114 115 115 114 114 112 110 103 95 100 106 96 102 95 78 55 34 39 82 84 88 90 90 89 89 90 90 89 87 84 81 79 76 73
115 117 121 123 122 122 120 119 119 119 119 120 120 122 119 114 113 113 111 109 107 91 83 79 65 47 25 68 90 90 87 87 88 90 91 91 91 93 93 90 85 83 82 81
116 118 121 123 123 122 121 120 119 118 118 118 118 117 116 113 107 101 102 100 96 102 94 83 64 41 25 94 95 95 93 91 91 92 94 96 97 95 92 93 95 93 87 81
117 120 123 124 122 119 119 121 119 118 118 116 118 116 112 109 111 110 110 112 117 115 114 102 77 42 75 96 95 93 87 80 82 85 89 89 90 91 91 90 87 85 83 78
119 120 120 119 116 120 124 125 124 126 124 123 120 115 109 108 111 117 124 127 123 125 125 126 124 117 102 95 92 93 97 102 97 94 89 89 92 91 87 83 82 79 79 75
120 118 118 116 116 118 117 118 120 120 119 119 116 115 117 120 123 125 124 126 132 133 125 126 122 113 102 98 98 98 97 95 94 94 97 96 96 96 97 95 89 83 75 79